ASTRA 2F

Last updated on Tue Sep 22 2026 00:03:12 GMT+0000 (Coordinated Universal Time)

1 38778U 12051A 26264.13824247 .00000146 00000+0 00000+0 0 9992 2 38778 0.0737 258.1263 0003808 299.8828 239.9836 1.00270574 42095
UTC large
Height (km)
Speed (km/s)
/
Latitude / Longitude
Inclination (degrees)
Orbital Period (minutes)
Azimuth
Elevation
Range (km)
Doppler Factor

Next 0 passes for location: London (51.5072 / 0.1276)

No passes found over London.
ASTRA 2F